Regional Weather Roundup
Issued by NWS

Home | Current Version | Previous Version | Text Only | Print | Product List | Glossary Off
Versions: 1 2 3 4 5 6 7 8 9 10 11 12 13 14 15 16 17 18 19 20 21 22 23 24 25 26 27 28 29 30 31 32 33 34 35 36 37 38 39 40 41 42 43 44 45 46 47 48 49 50

000
ASUS45 KSLC 270610
RWRUT

UTAH REGIONAL WEATHER ROUNDUP
NATIONAL WEATHER SERVICE SALT LAKE CITY UT
1100 PM MST THU FEB 26 2015

UTZ001>011-023>025-270700-

NORTHERN UTAH

CITY           SKY/WX    TMP DP  RH WIND       PRES   REMARKS
BRIGHAM CITY   CLEAR     28  25  88 SE3       29.91F
HILL AFB       NOT AVBL
LOGAN          CLEAR     26  21  81 N6        29.91S WCI  19
OGDEN          CLEAR     29  27  92 SE3       29.90F
PROVO AIRPORT  CLOUDY    36  28  75 W7        29.91F WCI  30
SALT LAKE CITY PTCLDY    32  29  88 SW3       29.91F
VERNAL         CLOUDY    27  16  63 E9        29.89R WCI  18
WENDOVER       CLOUDY    39  25  56 CALM      29.92S
HEBER CITY     CLOUDY    32  28  86 W5        29.87S WCI  27
WEST JORDAN    CLEAR     28  28 100 S5        29.91F WCI  23

$$

UTZ012>022-026-027-270700-

SOUTHERN/CENTRAL UTAH

CITY           SKY/WX    TMP DP  RH WIND       PRES   REMARKS
BLANDING       PTCLDY    18  18  98 N5        29.93S WCI  11
BRYCE CANYON   MOCLDY    24  20  84 W6        29.88F WCI  17
CEDAR CITY     CLEAR     29  23  78 N3        29.88F
DELTA          CLOUDY    34  25  71 CALM      29.91F
HANKSVILLE     PTCLDY    27  27 100 E3        29.89F
MILFORD        CLOUDY    33  26  75 CALM      29.90F
MOAB/CYNLANDS  CLOUDY    35  28  75 CALM      29.84F
PRICE          CLOUDY    30  27  88 CALM      29.84S FOG
ST GEORGE      PTCLDY    48  27  43 NE8       29.88R
KANAB            N/A     36  27  69 N8        29.91R WCI  29

$$

REGIONAL REPORTS     COLORADO/ARIZONA

CITY           SKY/WX    TMP DP  RH WIND       PRES   REMARKS
CRAIG, CO      FLURRIES  23  18  81 S3        29.87S
GRAND JUNCTION CLOUDY    34  25  69 N3        29.84F
RIFLE          CLOUDY    32  26  78 E7        29.84S WCI  26
MONTROSE       CLOUDY    30  23  75 CALM      29.87F
CORTEZ         FOG       27  26  96 S3        29.85S VSB 1/2
PAGE, AZ       PTCLDY    39  30  70 SE5       29.86S HAZE
GRAND CANYON   CLEAR     26  20  77 CALM      29.88F
KINGMAN        CLEAR     39  28  64 CALM      29.82F
FLAGSTAFF      CLEAR     26  17  68 CALM      29.89S

$$

REGIONAL REPORTS    NEVADA/IDAHO/WYOMING

CITY           SKY/WX    TMP DP  RH WIND       PRES   REMARKS
LAS VEGAS, NV  PTCLDY    58  25  28 S8        29.76R
ELY            PTCLDY    26  17  68 CALM      29.91F
ELKO           CLOUDY    34  26  72 CALM      29.91F
POCATELLO, ID  CLOUDY    32  25  75 NE3       29.90F
BURLEY         CLOUDY    33  29  85 S7        29.87F WCI  27
EVANSTON, WY   CLOUDY    19  17  92 E12       29.86S WCI   7
ROCK SPRINGS   PTCLDY     6   2  83 E13       29.93F WCI -10

$$


USA.gov is the U.S. government's official web portal to all federal, state and local government web resources and services.